| time (UTC) | temp C | wind direction | speed KPH | gust KPH | rain 1hr cm | rain 24hr cm | rain mn cm | humidity % | barometer mb |
| 20260509173222 | 13 | 22 | 8.0 | 9.7 | 0.00 | 0.00 | 0.00 | 55 | 932.6 |
| 20260509172722 | 13 | 22 | 8.0 | 11.3 | 0.00 | 0.00 | 0.00 | 55 | 1035.6 |
| 20260509172421 | 13 | 67 | 8.0 | 14.5 | 0.00 | 0.00 | 0.00 | 55 | 1017.8 |
| 20260509172222 | 13 | 90 | 6.4 | 17.7 | 0.00 | 0.00 | 0.00 | 55 | 1010.4 |
| 20260509171722 | 13 | 90 | 11.3 | 17.7 | 0.00 | 0.00 | 0.00 | 55 | 979.8 |
| 20260509171222 | 14 | 67 | 14.5 | 16.1 | 0.00 | 0.00 | 0.00 | 55 | 1045.8 |
| 20260509170722 | 14 | 45 | 8.0 | 17.7 | 0.00 | 0.00 | 0.00 | 55 | 959.0 |
| 20260509170222 | 14 | 45 | 14.5 | 19.3 | 0.00 | 0.00 | 0.00 | 55 | 1009.3 |
| 20260509165722 | 14 | 22 | 9.7 | 16.1 | 0.00 | 0.00 | 0.00 | 55 | 1041.3 |
| 20260509165222 | 14 | 22 | 11.3 | 17.7 | 0.00 | 0.00 | 0.00 | 55 | 1061.6 |
| 20260509165121 | 14 | 22 | 12.9 | 17.7 | 0.00 | 0.00 | 0.00 | 54 | 997.8 |
| 20260509164722 | 14 | 22 | 6.4 | 16.1 | 0.00 | 0.00 | 0.00 | 54 | 1007.3 |
| 20260509164222 | 13 | 22 | 6.4 | 14.5 | 0.00 | 0.00 | 0.00 | 54 | 1033.4 |
| 20260509163722 | 14 | 22 | 3.2 | 14.5 | 0.00 | 0.00 | 0.00 | 54 | 1084.7 |
| 20260509163222 | 14 | 0 | 12.9 | 12.9 | 0.00 | 0.00 | 0.00 | 54 | 1013.5 |
| 20260509162722 | 14 | 337 | 4.8 | 12.9 | 0.00 | 0.00 | 0.00 | 54 | 1039.7 |
| 20260509162222 | 14 | 22 | 8.0 | 11.3 | 0.00 | 0.00 | 0.00 | 54 | 1090.9 |
| 20260509161821 | 14 | 22 | 8.0 | 14.5 | 0.00 | 0.00 | 0.00 | 53 | 997.8 |
| 20260509161722 | 14 | 0 | 3.2 | 14.5 | 0.00 | 0.00 | 0.00 | 53 | 1055.4 |
| 20260509161222 | 14 | 45 | 6.4 | 12.9 | 0.00 | 0.00 | 0.00 | 53 | 1036.5 |
| 20260509160722 | 15 | 0 | 6.4 | 19.3 | 0.00 | 0.00 | 0.00 | 52 | 914.2 |
| 20260509160222 | 15 | 22 | 16.1 | 16.1 | 0.00 | 0.00 | 0.00 | 52 | 965.4 |
| 20260509155722 | 14 | 0 | 8.0 | 19.3 | 0.00 | 0.00 | 0.00 | 51 | 1039.7 |
| 20260509155223 | 14 | 0 | 4.8 | 17.7 | 0.00 | 0.00 | 0.00 | 51 | 1087.8 |
| 20260509154722 | 14 | 0 | 9.7 | 16.1 | 0.00 | 0.00 | 0.00 | 51 | 1033.4 |
| 20260509154521 | 14 | 337 | 9.7 | 16.1 | 0.00 | 0.00 | 0.00 | 51 | 1052.2 |
| 20260509154222 | 14 | 22 | 4.8 | 14.5 | 0.00 | 0.00 | 0.00 | 50 | 1049.1 |
| 20260509153722 | 14 | 337 | 4.8 | 22.5 | 0.00 | 0.00 | 0.00 | 50 | 1007.3 |
| 20260509153223 | 15 | 0 | 12.9 | 17.7 | 0.00 | 0.00 | 0.00 | 50 | 997.9 |
| 20260509152722 | 15 | 337 | 6.4 | 20.9 | 0.00 | 0.00 | 0.00 | 49 | 1036.5 |
| 20260509152222 | 15 | 337 | 16.1 | 24.1 | 0.00 | 0.00 | 0.00 | 49 | 994.7 |
| 20260509151722 | 15 | 22 | 19.3 | 19.3 | 0.00 | 0.00 | 0.00 | 49 | 1072.1 |
| 20260509151221 | 15 | 337 | 8.0 | 19.3 | 0.00 | 0.00 | 0.00 | 48 | 1069.0 |
| 20260509150722 | 15 | 315 | 12.9 | 24.1 | 0.00 | 0.00 | 0.00 | 49 | 1059.5 |
| 20260509150222 | 15 | 315 | 24.1 | 27.4 | 0.00 | 0.00 | 0.00 | 49 | 952.9 |
| 20260509145722 | 15 | 45 | 8.0 | 20.9 | 0.00 | 0.00 | 0.00 | 51 | 1078.4 |
| 20260509145222 | 15 | 270 | 8.0 | 20.9 | 0.00 | 0.00 | 0.00 | 52 | 1075.2 |
| 20260509144722 | 15 | 270 | 1.6 | 17.7 | 0.00 | 0.00 | 0.00 | 55 | 1075.3 |
| 20260509144222 | 14 | 315 | 16.1 | 16.1 | 0.00 | 0.00 | 0.00 | 57 | 1087.8 |
| 20260509143921 | 14 | 315 | 6.4 | 12.9 | 0.00 | 0.00 | 0.00 | 57 | 1084.7 |
| 20260509143722 | 14 | 0 | 3.2 | 12.9 | 0.00 | 0.00 | 0.00 | 57 | 1039.7 |
| 20260509143222 | 13 | 22 | 6.4 | 9.7 | 0.00 | 0.00 | 0.00 | 57 | 1042.8 |
| 20260509142722 | 13 | 22 | 3.2 | 14.5 | 0.00 | 0.00 | 0.00 | 56 | 1078.4 |
| 20260509142222 | 13 | 22 | 6.4 | 16.1 | 0.00 | 0.00 | 0.00 | 56 | 1033.4 |
| 20260509141732 | 14 | 67 | 4.8 | 12.9 | 0.00 | 0.00 | 0.00 | 56 | 1042.1 |
| 20260509141722 | 14 | 67 | 4.8 | 12.9 | 0.00 | 0.00 | 0.00 | 56 | 1042.8 |
| 20260509141222 | 14 | 0 | 3.2 | 11.3 | 0.00 | 0.00 | 0.00 | 55 | 1046.0 |
| 20260509140722 | 14 | 0 | 9.7 | 17.7 | 0.00 | 0.00 | 0.00 | 54 | 1027.1 |
| 20260509140622 | 14 | 337 | 11.3 | 17.7 | 0.00 | 0.00 | 0.00 | 54 | 1065.8 |
| 20260509140222 | 14 | 292 | 9.7 | 14.5 | 0.00 | 0.00 | 0.00 | 54 | 1068.9 |
| 20260509135722 | 14 | 0 | 3.2 | 9.7 | 0.00 | 0.00 | 0.00 | 54 | 1069.0 |
| 20260509135222 | 14 | 337 | 3.2 | 14.5 | 0.00 | 0.00 | 0.00 | 53 | 1059.5 |
| 20260509134722 | 15 | 337 | 12.9 | 19.3 | 0.00 | 0.00 | 0.00 | 52 | 1062.7 |
| 20260509134223 | 15 | 315 | 14.5 | 17.7 | 0.00 | 0.00 | 0.00 | 51 | 1021.9 |
| 20260509133723 | 15 | 270 | 14.5 | 19.3 | 0.00 | 0.00 | 0.00 | 50 | 1028.6 |
| 20260509133322 | 16 | 292 | 11.3 | 19.3 | 0.00 | 0.00 | 0.00 | 51 | 1032.3 |
| 20260509133223 | 16 | 270 | 12.9 | 16.1 | 0.00 | 0.00 | 0.00 | 51 | 1016.6 |
| 20260509132723 | 16 | 270 | 16.1 | 16.1 | 0.00 | 0.00 | 0.00 | 50 | 1016.9 |
| 20260509132223 | 16 | 0 | 8.0 | 11.3 | 0.00 | 0.00 | 0.00 | 50 | 1010.8 |
| 20260509131723 | 16 | 270 | 11.3 | 17.7 | 0.00 | 0.00 | 0.00 | 50 | 1018.8 |
| 20260509131223 | 16 | 292 | 9.7 | 14.5 | 0.00 | 0.00 | 0.00 | 50 | 1030.8 |
| 20260509130723 | 16 | 337 | 11.3 | 20.9 | 0.00 | 0.00 | 0.00 | 50 | 1032.8 |
| 20260509130223 | 16 | 292 | 1.6 | 14.5 | 0.00 | 0.00 | 0.00 | 50 | 1038.3 |
| 20260509130022 | 16 | 270 | 4.8 | 14.5 | 0.00 | 0.00 | 0.00 | 49 | 1047.4 |
| 20260509125723 | 16 | 292 | 4.8 | 16.1 | 0.00 | 0.00 | 0.00 | 49 | 1028.0 |
| 20260509125223 | 16 | 315 | 1.6 | 16.1 | 0.00 | 0.00 | 0.00 | 50 | 1044.2 |
| 20260509124723 | 16 | 337 | 4.8 | 12.9 | 0.00 | 0.00 | 0.00 | 51 | 1029.6 |
| 20260509124223 | 16 | 270 | 6.4 | 16.1 | 0.00 | 0.00 | 0.00 | 50 | 1034.8 |
| 20260509123723 | 16 | 315 | 9.7 | 17.7 | 0.00 | 0.00 | 0.00 | 50 | 1069.7 |
| 20260509123223 | 16 | 270 | 4.8 | 6.4 | 0.00 | 0.00 | 0.00 | 53 | 1062.6 |
| 20260509122722 | 16 | 292 | 0.0 | 4.8 | 0.00 | 0.00 | 0.00 | 53 | 1065.8 |
| 20260509122223 | 16 | 337 | 3.2 | 4.8 | 0.00 | 0.00 | 0.00 | 53 | 1056.3 |
| 20260509121723 | 15 | 0 | 3.2 | 9.7 | 0.00 | 0.00 | 0.00 | 53 | 1048.9 |
| 20260509121223 | 15 | 0 | 4.8 | 9.7 | 0.00 | 0.00 | 0.00 | 53 | 1022.2 |
| 20260509120723 | 15 | 337 | 4.8 | 12.9 | 0.00 | 0.00 | 0.00 | 52 | 1043.6 |
| 20260509120223 | 16 | 0 | 4.8 | 9.7 | 0.00 | 0.00 | 0.00 | 52 | 1027.2 |
| 20260509115723 | 15 | 315 | 0.0 | 14.5 | 0.00 | 0.00 | 0.00 | 52 | 1031.3 |
| 20260509115422 | 15 | 22 | 4.8 | 12.9 | 0.00 | 0.00 | 0.00 | 52 | 1013.3 |
| 20260509115223 | 15 | 22 | 9.7 | 12.9 | 0.00 | 0.00 | 0.00 | 52 | 1052.3 |
| 20260509114723 | 15 | 337 | 0.0 | 16.1 | 0.00 | 0.00 | 0.00 | 52 | 1013.3 |
| 20260509114223 | 15 | 292 | 16.1 | 16.1 | 0.00 | 0.00 | 0.00 | 52 | 1023.2 |
| 20260509113723 | 15 | 0 | 12.9 | 12.9 | 0.00 | 0.00 | 0.00 | 53 | 1003.1 |
| 20260509113223 | 15 | 315 | 8.0 | 16.1 | 0.00 | 0.00 | 0.00 | 54 | 1042.8 |
| 20260509112723 | 15 | 0 | 4.8 | 12.9 | 0.00 | 0.00 | 0.00 | 55 | 1038.3 |
| 20260509112223 | 14 | 337 | 3.2 | 14.5 | 0.00 | 0.00 | 0.00 | 54 | 1036.1 |
| 20260509112122 | 15 | 0 | 9.7 | 14.5 | 0.00 | 0.00 | 0.00 | 54 | 1018.8 |
| 20260509111723 | 15 | 315 | 3.2 | 19.3 | 0.00 | 0.00 | 0.00 | 53 | 1028.9 |
| 20260509111223 | 15 | 292 | 16.1 | 17.7 | 0.00 | 0.00 | 0.00 | 52 | 1059.6 |
| 20260509110723 | 16 | 0 | 6.4 | 17.7 | 0.00 | 0.00 | 0.00 | 52 | 1072.1 |
| 20260509110223 | 16 | 0 | 4.8 | 12.9 | 0.00 | 0.00 | 0.00 | 53 | 1062.7 |
| 20260509105723 | 16 | 22 | 6.4 | 11.3 | 0.00 | 0.00 | 0.00 | 53 | 1060.0 |
| 20260509105223 | 15 | 0 | 14.5 | 14.5 | 0.00 | 0.00 | 0.00 | 55 | 1053.2 |
| 20260509104822 | 15 | 0 | 4.8 | 12.9 | 0.00 | 0.00 | 0.00 | 55 | 1042.0 |
| 20260509104723 | 15 | 0 | 11.3 | 12.9 | 0.00 | 0.00 | 0.00 | 56 | 1079.3 |
| 20260509104223 | 14 | 337 | 9.7 | 14.5 | 0.00 | 0.00 | 0.00 | 58 | 1040.6 |
| 20260509103723 | 13 | 337 | 6.4 | 14.5 | 0.00 | 0.00 | 0.00 | 60 | 1043.8 |
| 20260509103223 | 13 | 22 | 14.5 | 14.5 | 0.00 | 0.00 | 0.00 | 60 | 1043.7 |
| 20260509102723 | 12 | 0 | 6.4 | 16.1 | 0.00 | 0.00 | 0.00 | 61 | 1028.0 |
| 20260509102223 | 12 | 337 | 16.1 | 20.9 | 0.00 | 0.00 | 0.00 | 60 | 1044.2 |
| 20260509101723 | 12 | 22 | 12.9 | 22.5 | 0.00 | 0.00 | 0.00 | 59 | 1038.0 |
| 20260509101522 | 12 | 337 | 16.1 | 22.5 | 0.00 | 0.00 | 0.00 | 58 | 1012.0 |
| 20260509101223 | 12 | 0 | 16.1 | 20.9 | 0.00 | 0.00 | 0.00 | 58 | 1078.4 |
| 20260509100723 | 13 | 22 | 9.7 | 17.7 | 0.00 | 0.00 | 0.00 | 57 | 1066.1 |
| 20260509100223 | 13 | 0 | 12.9 | 16.1 | 0.00 | 0.00 | 0.00 | 56 | 1068.9 |
| 20260509095723 | 14 | 22 | 16.1 | 16.1 | 0.00 | 0.00 | 0.00 | 57 | 1067.5 |
| 20260509095223 | 13 | 0 | 11.3 | 22.5 | 0.00 | 0.00 | 0.00 | 57 | 1042.8 |
| 20260509094723 | 13 | 22 | 9.7 | 25.7 | 0.00 | 0.00 | 0.00 | 57 | 1078.4 |
| 20260509094222 | 13 | 45 | 9.7 | 27.4 | 0.00 | 0.00 | 0.00 | 56 | 1065.8 |
| 20260509093723 | 13 | 0 | 8.0 | 24.1 | 0.00 | 0.00 | 0.00 | 56 | 1090.9 |
| 20260509093223 | 14 | 45 | 14.5 | 24.1 | 0.00 | 0.00 | 0.00 | 55 | 1090.9 |
| 20260509092723 | 14 | 0 | 6.4 | 24.1 | 0.00 | 0.00 | 0.00 | 56 | 1090.9 |
| 20260509092223 | 14 | 45 | 11.3 | 24.1 | 0.00 | 0.00 | 0.00 | 57 | 1084.6 |
| 20260509091723 | 13 | 22 | 9.7 | 25.7 | 0.00 | 0.00 | 0.00 | 57 | 1052.2 |
| 20260509091223 | 13 | 22 | 8.0 | 25.7 | 0.00 | 0.00 | 0.00 | 58 | 1055.3 |
| 20260509090922 | 13 | 0 | 16.1 | 25.7 | 0.00 | 0.00 | 0.00 | 59 | 997.9 |
| 20260509090723 | 13 | 0 | 12.9 | 20.9 | 0.00 | 0.00 | 0.00 | 59 | 1094.1 |
| 20260509090223 | 13 | 135 | 3.2 | 20.9 | 0.00 | 0.00 | 0.00 | 59 | 1042.8 |
| 20260509085723 | 13 | 0 | 8.0 | 25.7 | 0.00 | 0.00 | 0.00 | 61 | 1078.4 |
| 20260509085223 | 13 | 22 | 3.2 | 14.5 | 0.00 | 0.00 | 0.00 | 61 | 1024.0 |
| 20260509084723 | 13 | 0 | 12.9 | 22.5 | 0.00 | 0.00 | 0.00 | 62 | 1097.2 |
| 20260509084223 | 13 | 225 | 3.2 | 17.7 | 0.00 | 0.00 | 0.00 | 62 | 1030.1 |
| 20260509083723 | 12 | 22 | 9.7 | 24.1 | 0.00 | 0.00 | 0.00 | 64 | 1084.7 |
| 20260509083622 | 12 | 22 | 19.3 | 24.1 | 0.00 | 0.00 | 0.00 | 64 | 1075.2 |
| 20260509083223 | 12 | 337 | 12.9 | 24.1 | 0.00 | 0.00 | 0.00 | 65 | 1087.8 |
| 20260509082723 | 11 | 337 | 14.5 | 16.1 | 0.00 | 0.00 | 0.00 | 69 | 1051.2 |
| 20260509082223 | 10 | 0 | 16.1 | 19.3 | 0.00 | 0.00 | 0.00 | 70 | 1049.1 |
| 20260509081723 | 10 | 337 | 12.9 | 19.3 | 0.00 | 0.00 | 0.00 | 69 | 1008.1 |
| 20260509081223 | 11 | 22 | 12.9 | 25.7 | 0.00 | 0.00 | 0.00 | 68 | 1087.8 |
| 20260509080733 | 11 | 22 | 19.3 | 20.9 | 0.00 | 0.00 | 0.00 | 68 | 976.0 |
| 20260509080723 | 11 | 22 | 20.9 | 20.9 | 0.00 | 0.00 | 0.00 | 68 | 976.0 |
| 20260509080322 | 11 | 337 | 4.8 | 17.7 | 0.00 | 0.00 | 0.00 | 68 | 1052.1 |
| 20260509080223 | 11 | 337 | 11.3 | 17.7 | 0.00 | 0.00 | 0.00 | 68 | 999.5 |
| 20260509075723 | 11 | 337 | 8.0 | 22.5 | 0.00 | 0.00 | 0.00 | 68 | 1056.9 |
| 20260509075223 | 11 | 0 | 8.0 | 11.3 | 0.00 | 0.00 | 0.00 | 68 | 1001.0 |
| 20260509074723 | 11 | 337 | 6.4 | 19.3 | 0.00 | 0.00 | 0.00 | 67 | 1016.7 |
| 20260509074223 | 11 | 0 | 8.0 | 19.3 | 0.00 | 0.00 | 0.00 | 67 | 1058.5 |
| 20260509073723 | 12 | 0 | 12.9 | 20.9 | 0.00 | 0.00 | 0.00 | 67 | 1010.4 |
| 20260509073223 | 12 | 22 | 11.3 | 19.3 | 0.00 | 0.00 | 0.00 | 67 | 1052.2 |
| 20260509073022 | 12 | 0 | 9.7 | 14.5 | 0.00 | 0.00 | 0.00 | 67 | 1056.3 |
| 20260509072723 | 12 | 45 | 9.7 | 14.5 | 0.00 | 0.00 | 0.00 | 68 | 1045.9 |
| 20260509072223 | 12 | 337 | 4.8 | 16.1 | 0.00 | 0.00 | 0.00 | 70 | 1084.6 |
| 20260509071724 | 11 | 22 | 9.7 | 16.1 | 0.00 | 0.00 | 0.00 | 71 | 1010.4 |
| 20260509071223 | 11 | 337 | 9.7 | 19.3 | 0.00 | 0.00 | 0.00 | 71 | 976.4 |
| 20260509070723 | 11 | 337 | 6.4 | 16.1 | 0.00 | 0.00 | 0.00 | 72 | 1007.2 |
| 20260509070223 | 11 | 315 | 9.7 | 20.9 | 0.00 | 0.00 | 0.00 | 73 | 994.5 |
| 20260509065722 | 10 | 0 | 11.3 | 19.3 | 0.00 | 0.00 | 0.00 | 73 | 1050.7 |
| 20260509065223 | 10 | 22 | 8.0 | 19.3 | 0.00 | 0.00 | 0.00 | 73 | 1046.0 |
| 20260509064723 | 10 | 337 | 16.1 | 19.3 | 0.00 | 0.00 | 0.00 | 73 | 1055.4 |
| 20260509064223 | 10 | 337 | 12.9 | 20.9 | 0.00 | 0.00 | 0.00 | 72 | 1055.4 |
| 20260509063723 | 10 | 45 | 6.4 | 19.3 | 0.00 | 0.00 | 0.00 | 73 | 968.5 |
| 20260509063223 | 10 | 0 | 12.9 | 17.7 | 0.00 | 0.00 | 0.00 | 73 | 1019.8 |
| 20260509062723 | 10 | 0 | 16.1 | 19.3 | 0.00 | 0.00 | 0.00 | 73 | 1000.0 |
| 20260509062422 | 10 | 0 | 9.7 | 19.3 | 0.00 | 0.00 | 0.00 | 73 | 1010.4 |
| 20260509062223 | 11 | 337 | 14.5 | 19.3 | 0.00 | 0.00 | 0.00 | 73 | 1042.8 |
| 20260509061723 | 11 | 292 | 11.3 | 11.3 | 0.00 | 0.00 | 0.00 | 73 | 971.5 |
| 20260509061223 | 11 | 45 | 6.4 | 17.7 | 0.00 | 0.00 | 0.00 | 73 | 1045.9 |
| 20260509060723 | 11 | 0 | 16.1 | 22.5 | 0.00 | 0.00 | 0.00 | 74 | 1016.7 |
| 20260509060223 | 11 | 315 | 6.4 | 14.5 | 0.00 | 0.00 | 0.00 | 73 | 1039.7 |
| 20260509055723 | 11 | 0 | 4.8 | 22.5 | 0.00 | 0.00 | 0.00 | 72 | 1007.3 |
| 20260509055223 | 12 | 337 | 9.7 | 17.7 | 0.00 | 0.00 | 0.00 | 74 | 1010.4 |
| 20260509055122 | 12 | 22 | 9.7 | 17.7 | 0.00 | 0.00 | 0.00 | 75 | 952.9 |
| 20260509054723 | 12 | 0 | 12.9 | 16.1 | 0.00 | 0.00 | 0.00 | 77 | 1022.7 |
| 20260509054223 | 11 | 337 | 9.7 | 14.5 | 0.00 | 0.00 | 0.00 | 80 | 1016.7 |
| 20260509053723 | 11 | 22 | 8.0 | 14.5 | 0.00 | 0.00 | 0.00 | 82 | 994.7 |
| 20260509053223 | 10 | 292 | 3.2 | 11.3 | 0.00 | 0.00 | 0.00 | 83 | 1042.7 |
| 20260509052723 | 10 | 22 | 11.3 | 12.9 | 0.00 | 0.00 | 0.00 | 84 | 1023.4 |
| 20260509052223 | 10 | 270 | 1.6 | 6.4 | 0.00 | 0.00 | 0.00 | 85 | 1015.0 |
| 20260509051822 | 9 | 45 | 3.2 | 12.9 | 0.00 | 0.00 | 0.00 | 85 | 1049.0 |
| 20260509051723 | 9 | 337 | 1.6 | 12.9 | 0.00 | 0.00 | 0.00 | 85 | 1004.1 |
| 20260509051223 | 9 | 0 | 6.4 | 16.1 | 0.00 | 0.00 | 0.00 | 85 | 1064.8 |
| 20260509050723 | 9 | 292 | 11.3 | 14.5 | 0.00 | 0.00 | 0.00 | 85 | 1094.1 |
| 20260509050223 | 9 | 22 | 4.8 | 17.7 | 0.00 | 0.00 | 0.00 | 86 | 1032.2 |
| 20260509045723 | 9 | 315 | 11.3 | 12.9 | 0.00 | 0.00 | 0.00 | 86 | 1042.8 |
| 20260509045223 | 9 | 292 | 12.9 | 14.5 | 0.00 | 0.00 | 0.00 | 86 | 994.7 |
| 20260509044724 | 9 | 337 | 8.0 | 12.9 | 0.00 | 0.00 | 0.00 | 87 | 1004.1 |
| 20260509044523 | 9 | 22 | 3.2 | 11.3 | 0.00 | 0.00 | 0.00 | 87 | 1064.7 |
| 20260509044223 | 9 | 0 | 11.3 | 11.3 | 0.00 | 0.00 | 0.00 | 87 | 1010.4 |
| 20260509043724 | 8 | 0 | 6.4 | 9.7 | 0.00 | 0.00 | 0.00 | 87 | 1106.6 |
| 20260509043223 | 8 | 315 | 3.2 | 11.3 | 0.00 | 0.00 | 0.00 | 88 | 917.3 |
| 20260509042723 | 8 | 337 | 3.2 | 11.3 | 0.00 | 0.00 | 0.00 | 88 | 1004.1 |
| 20260509042223 | 8 | 337 | 6.4 | 11.3 | 0.00 | 0.00 | 0.00 | 88 | 1064.7 |
| 20260509041724 | 8 | 0 | 6.4 | 9.7 | 0.00 | 0.00 | 0.00 | 88 | 1010.4 |
| 20260509041223 | 8 | 337 | 6.4 | 14.5 | 0.00 | 0.00 | 0.00 | 89 | 1010.4 |
| 20260509041006 | 8 | 337 | 4.8 | 6.4 | 0.00 | 0.00 | 0.00 | 89 | 1010.4 |
| 20260509040724 | 8 | 337 | 3.2 | 8.0 | 0.00 | 0.00 | 0.00 | 89 | 1097.2 |
| 20260509040223 | 8 | 337 | 8.0 | 9.7 | 0.00 | 0.00 | 0.00 | 89 | 1055.4 |
| 20260509035724 | 8 | 337 | 4.8 | 6.4 | 0.00 | 0.00 | 0.00 | 89 | 1010.4 |
| 20260509035224 | 8 | 0 | 6.4 | 8.0 | 0.00 | 0.00 | 0.00 | 89 | 968.6 |
| 20260509034724 | 8 | 315 | 8.0 | 9.7 | 0.00 | 0.00 | 0.00 | 89 | 1098.2 |
| 20260509034224 | 8 | 315 | 4.8 | 8.0 | 0.00 | 0.00 | 0.00 | 88 | 1100.3 |
| 20260509033923 | 8 | 315 | 6.4 | 9.7 | 0.00 | 0.00 | 0.00 | 88 | 1061.6 |
| 20260509033724 | 8 | 315 | 3.2 | 9.7 | 0.00 | 0.00 | 0.00 | 88 | 1045.9 |
| 20260509033224 | 8 | 315 | 6.4 | 8.0 | 0.00 | 0.00 | 0.00 | 88 | 965.4 |
| 20260509032732 | 8 | 337 | 4.8 | 6.4 | 0.00 | 0.00 | 0.00 | 88 | 1052.2 |
| 20260509032724 | 8 | 337 | 4.8 | 6.4 | 0.00 | 0.00 | 0.00 | 88 | 1052.2 |
| 20260509032234 | 8 | 292 | 3.2 | 6.4 | 1.02 | 0.00 | 0.00 | 88 | 1049.1 |
| 20260509032224 | 8 | 292 | 3.2 | 6.4 | 0.00 | 0.00 | 0.00 | 88 | 1049.1 |
| 20260509031724 | 8 | 315 | 1.6 | 9.7 | 0.00 | 0.00 | 0.00 | 88 | 991.6 |
| 20260509031224 | 8 | 270 | 3.2 | 6.4 | 0.00 | 0.00 | 0.00 | 88 | 875.5 |
| 20260509030724 | 8 | 315 | 3.2 | 4.8 | 0.00 | 0.00 | 0.00 | 88 | 1081.5 |
| 20260509030623 | 8 | 315 | 3.2 | 4.8 | 0.00 | 0.00 | 0.00 | 88 | 985.3 |
| 20260509030224 | 8 | 270 | 3.2 | 6.4 | 0.00 | 0.00 | 0.00 | 88 | 1013.5 |
| 20260509025724 | 8 | 315 | 4.8 | 9.7 | 0.00 | 0.00 | 0.00 | 87 | 1030.3 |
| 20260509025224 | 8 | 292 | 3.2 | 9.7 | 0.00 | 0.00 | 0.00 | 87 | 1078.4 |
| 20260509024724 | 8 | 315 | 3.2 | 9.7 | 0.00 | 0.00 | 0.00 | 87 | 1039.7 |
| 20260509024224 | 8 | 292 | 3.2 | 6.4 | 0.00 | 0.00 | 0.00 | 87 | 1046.0 |
| 20260509023724 | 8 | 292 | 6.4 | 6.4 | 0.00 | 0.00 | 0.00 | 87 | 997.9 |
| 20260509023323 | 8 | 315 | 6.4 | 6.4 | 0.00 | 0.00 | 0.00 | 87 | 1007.3 |
| 20260509023224 | 8 | 292 | 3.2 | 6.4 | 0.00 | 0.00 | 0.00 | 87 | 971.6 |
| 20260509022724 | 8 | 292 | 6.4 | 8.0 | 0.00 | 0.00 | 0.00 | 87 | 1023.9 |
| 20260509022224 | 8 | 270 | 3.2 | 6.4 | 0.00 | 0.00 | 0.00 | 87 | 968.6 |
| 20260509021724 | 8 | 315 | 0.0 | 8.0 | 0.00 | 0.00 | 0.00 | 87 | 1030.2 |
| 20260509021224 | 8 | 292 | 6.4 | 8.0 | 0.00 | 0.00 | 0.00 | 87 | 923.5 |
| 20260509020724 | 8 | 292 | 1.6 | 4.8 | 0.00 | 0.00 | 0.00 | 87 | 1010.4 |
| 20260509020224 | 8 | 0 | 1.6 | 4.8 | 0.00 | 0.00 | 0.00 | 87 | 1004.1 |
| 20260509020023 | 8 | 270 | 3.2 | 9.7 | 0.00 | 0.00 | 0.00 | 87 | 955.2 |
| 20260509015724 | 8 | 292 | 4.8 | 9.7 | 0.00 | 0.00 | 0.00 | 87 | 1039.7 |
| 20260509015224 | 8 | 0 | 1.6 | 6.4 | 0.00 | 0.00 | 0.00 | 87 | 1049.1 |
| 20260509014724 | 8 | 270 | 6.4 | 8.0 | 0.00 | 0.00 | 0.00 | 87 | 956.0 |
| 20260509014224 | 8 | 270 | 4.8 | 8.0 | 0.00 | 0.00 | 0.00 | 87 | 923.6 |
| 20260509013724 | 8 | 292 | 4.8 | 6.4 | 0.00 | 0.00 | 0.00 | 87 | 923.6 |
| 20260509013224 | 8 | 270 | 3.2 | 6.4 | 0.00 | 0.00 | 0.00 | 87 | 1087.8 |
| 20260509012723 | 8 | 270 | 0.0 | 6.4 | 0.00 | 0.00 | 0.00 | 87 | 920.5 |
| 20260509012224 | 8 | 292 | 3.2 | 6.4 | 0.00 | 0.00 | 0.00 | 87 | 1097.2 |
| 20260509011724 | 8 | 292 | 6.4 | 6.4 | 0.00 | 0.00 | 0.00 | 87 | 1049.1 |
| 20260509011224 | 8 | 292 | 1.6 | 6.4 | 0.00 | 0.00 | 0.00 | 86 | 1039.6 |
| 20260509010724 | 8 | 315 | 6.4 | 6.4 | 0.00 | 0.00 | 0.00 | 86 | 985.3 |
| 20260509010224 | 8 | 270 | 1.6 | 6.4 | 0.00 | 0.00 | 0.00 | 86 | 1055.4 |
| 20260509005724 | 8 | 315 | 3.2 | 6.4 | 0.00 | 0.00 | 0.00 | 86 | 1081.5 |
| 20260509005423 | 8 | 315 | 4.8 | 4.8 | 0.00 | 0.00 | 0.00 | 86 | 1072.1 |
| 20260509005224 | 8 | 337 | 1.6 | 8.0 | 0.00 | 0.00 | 0.00 | 86 | 1001.0 |
| 20260509004724 | 8 | 292 | 4.8 | 4.8 | 0.00 | 0.00 | 0.00 | 86 | 1010.4 |
| 20260509004224 | 8 | 292 | 3.2 | 4.8 | 0.00 | 0.00 | 0.00 | 86 | 1084.7 |
| 20260509003724 | 8 | 270 | 1.6 | 4.8 | 0.00 | 0.00 | 0.00 | 86 | 1007.3 |
| 20260509003224 | 8 | 270 | 1.6 | 8.0 | 0.00 | 0.00 | 0.00 | 86 | 1039.7 |
| 20260509002724 | 8 | 292 | 8.0 | 8.0 | 0.00 | 0.00 | 0.00 | 86 | 1010.4 |
| 20260509002224 | 8 | 315 | 3.2 | 8.0 | 0.00 | 0.00 | 0.00 | 85 | 1036.5 |
| 20260509002123 | 8 | 270 | 3.2 | 8.0 | 0.00 | 0.00 | 0.00 | 85 | 1039.6 |
| 20260509001724 | 8 | 337 | 3.2 | 9.7 | 0.00 | 0.00 | 0.00 | 86 | 1046.0 |
| 20260509001224 | 8 | 292 | 4.8 | 8.0 | 0.00 | 0.00 | 0.00 | 85 | 1036.6 |
| 20260509000725 | 8 | 292 | 3.2 | 6.4 | 0.00 | 0.00 | 0.00 | 85 | 1004.1 |
| 20260509000226 | 8 | 0 | 3.2 | 6.4 | 0.00 | 0.00 | 0.00 | 85 | 1016.6 |
| 20260508235724 | 8 | 292 | 4.8 | 8.0 | 0.00 | 0.00 | 0.00 | 85 | 1052.2 |
| 20260508235224 | 8 | 337 | 4.8 | 9.7 | 0.00 | 0.00 | 0.00 | 85 | 1078.3 |
| 20260508234823 | 8 | 292 | 6.4 | 11.3 | 0.00 | 0.00 | 0.00 | 85 | 1094.1 |
| 20260508234724 | 8 | 315 | 6.4 | 11.3 | 0.00 | 0.00 | 0.00 | 85 | 991.6 |
| 20260508234224 | 8 | 315 | 9.7 | 9.7 | 0.00 | 0.00 | 0.00 | 85 | 1042.8 |
| 20260508233724 | 8 | 292 | 3.2 | 9.7 | 0.00 | 0.00 | 0.00 | 84 | 1039.7 |
| 20260508233224 | 8 | 315 | 6.4 | 6.4 | 0.00 | 0.00 | 0.00 | 84 | 1036.5 |
| 20260508232724 | 8 | 315 | 4.8 | 8.0 | 0.00 | 0.00 | 0.00 | 84 | 1087.8 |
| 20260508232427 | 8 | 315 | 1.6 | 6.4 | 0.00 | 0.00 | 0.00 | 84 | 1084.6 |
| 20260508232224 | 8 | 315 | 1.6 | 6.4 | 0.00 | 0.00 | 0.00 | 84 | 1084.6 |
| 20260508231724 | 8 | 270 | 0.0 | 8.0 | 0.00 | 0.00 | 0.00 | 84 | 1042.8 |
| 20260508231224 | 8 | 315 | 8.0 | 8.0 | 0.00 | 0.00 | 0.00 | 84 | 1084.7 |
| 20260508230724 | 8 | 315 | 6.4 | 8.0 | 0.00 | 0.00 | 0.00 | 84 | 1058.4 |
| 20260508230224 | 8 | 315 | 4.8 | 4.8 | 0.00 | 0.00 | 0.00 | 84 | 946.3 |
| 20260508225724 | 8 | 292 | 3.2 | 6.4 | 0.00 | 0.00 | 0.00 | 84 | 1001.0 |
| 20260508225224 | 8 | 315 | 3.2 | 4.8 | 0.00 | 0.00 | 0.00 | 84 | 1010.4 |
| 20260508224724 | 8 | 292 | 3.2 | 4.8 | 0.00 | 0.00 | 0.00 | 84 | 1049.1 |
| 20260508224223 | 8 | 315 | 4.8 | 6.4 | 0.00 | 0.00 | 0.00 | 84 | 997.9 |
| 20260508223724 | 8 | 292 | 6.4 | 6.4 | 0.00 | 0.00 | 0.00 | 84 | 1081.5 |
| 20260508223224 | 8 | 292 | 4.8 | 9.7 | 0.00 | 0.00 | 0.00 | 84 | 971.7 |
| 20260508222724 | 8 | 315 | 1.6 | 4.8 | 0.00 | 0.00 | 0.00 | 84 | 1039.7 |
| 20260508222224 | 8 | 0 | 1.6 | 6.4 | 0.00 | 0.00 | 0.00 | 84 | 1055.4 |
| 20260508221724 | 8 | 292 | 3.2 | 8.0 | 0.00 | 0.00 | 0.00 | 84 | 1097.2 |
| 20260508221224 | 8 | 315 | 6.4 | 6.4 | 0.00 | 0.00 | 0.00 | 84 | 1039.7 |
| 20260508220923 | 8 | 315 | 3.2 | 6.4 | 0.00 | 0.00 | 0.00 | 84 | 1049.1 |
| 20260508220724 | 8 | 337 | 6.4 | 6.4 | 0.00 | 0.00 | 0.00 | 84 | 1094.0 |
| 20260508220224 | 8 | 0 | 3.2 | 8.0 | 0.00 | 0.00 | 0.00 | 83 | 1049.1 |
| 20260508215724 | 8 | 292 | 6.4 | 11.3 | 0.00 | 0.00 | 0.00 | 83 | 1097.2 |
| 20260508215224 | 8 | 135 | 0.0 | 9.7 | 0.00 | 0.00 | 0.00 | 83 | 965.4 |
| 20260508214725 | 8 | 292 | 8.0 | 11.3 | 0.00 | 0.00 | 0.00 | 83 | 953.2 |
| 20260508214224 | 8 | 337 | 3.2 | 11.3 | 0.00 | 0.00 | 0.00 | 83 | 1081.5 |
| 20260508213724 | 8 | 315 | 8.0 | 14.5 | 0.00 | 0.00 | 0.00 | 83 | 1036.6 |
| 20260508213623 | 8 | 292 | 8.0 | 14.5 | 0.00 | 0.00 | 0.00 | 83 | 1036.6 |
| 20260508213224 | 8 | 337 | 4.8 | 8.0 | 0.00 | 0.00 | 0.00 | 83 | 1008.4 |
| 20260508212724 | 9 | 292 | 3.2 | 9.7 | 0.00 | 0.00 | 0.00 | 83 | 1090.9 |
| 20260508212224 | 9 | 315 | 6.4 | 9.7 | 0.00 | 0.00 | 0.00 | 83 | 1013.5 |
| 20260508211724 | 9 | 292 | 8.0 | 11.3 | 0.00 | 0.00 | 0.00 | 83 | 1069.0 |
| 20260508211224 | 9 | 0 | 6.4 | 8.0 | 0.00 | 0.00 | 0.00 | 83 | 1001.0 |
| 20260508210724 | 9 | 0 | 3.2 | 9.7 | 0.00 | 0.00 | 0.00 | 82 | 1027.9 |
| 20260508210323 | 9 | 337 | 1.6 | 8.0 | 0.00 | 0.00 | 0.00 | 82 | 1058.5 |
| 20260508210224 | 9 | 315 | 4.8 | 8.0 | 0.00 | 0.00 | 0.00 | 82 | 1016.6 |
| 20260508205724 | 9 | 22 | 4.8 | 9.7 | 0.00 | 0.00 | 0.00 | 82 | 1049.1 |
| 20260508205225 | 9 | 337 | 4.8 | 9.7 | 0.00 | 0.00 | 0.00 | 82 | 1007.2 |
| 20260508204724 | 9 | 337 | 8.0 | 12.9 | 0.00 | 0.00 | 0.00 | 82 | 1046.0 |
| 20260508204224 | 9 | 292 | 8.0 | 9.7 | 0.00 | 0.00 | 0.00 | 82 | 965.2 |
| 20260508203724 | 9 | 0 | 8.0 | 8.0 | 0.00 | 0.00 | 0.00 | 82 | 1036.6 |
| 20260508203224 | 9 | 315 | 1.6 | 8.0 | 0.00 | 0.00 | 0.00 | 81 | 1052.2 |
| 20260508203023 | 9 | 337 | 6.4 | 8.0 | 0.00 | 0.00 | 0.00 | 81 | 1094.0 |
| 20260508202724 | 9 | 0 | 4.8 | 8.0 | 0.00 | 0.00 | 0.00 | 81 | 1049.1 |
| 20260508202224 | 9 | 270 | 0.0 | 9.7 | 0.00 | 0.00 | 0.00 | 81 | 997.9 |
| 20260508201724 | 9 | 315 | 6.4 | 9.7 | 0.00 | 0.00 | 0.00 | 82 | 1004.1 |
| 20260508201224 | 9 | 0 | 3.2 | 8.0 | 0.00 | 0.00 | 0.00 | 82 | 1030.3 |
| 20260508200724 | 9 | 337 | 3.2 | 8.0 | 0.00 | 0.00 | 0.00 | 82 | 1075.3 |
| 20260508200224 | 9 | 22 | 3.2 | 8.0 | 0.00 | 0.00 | 0.00 | 82 | 1075.3 |
| 20260508195723 | 9 | 292 | 3.2 | 8.0 | 0.00 | 0.00 | 0.00 | 82 | 1042.8 |
| 20260508195224 | 9 | 292 | 0.0 | 11.3 | 0.00 | 0.00 | 0.00 | 82 | 1030.2 |
| 20260508194724 | 9 | 292 | 11.3 | 11.3 | 0.00 | 0.00 | 0.00 | 82 | 980.9 |
| 20260508194224 | 9 | 292 | 6.4 | 8.0 | 0.00 | 0.00 | 0.00 | 82 | 1024.0 |
| 20260508193724 | 9 | 315 | 1.6 | 8.0 | 0.00 | 0.00 | 0.00 | 82 | 1065.8 |
| 20260508193224 | 10 | 337 | 4.8 | 8.0 | 0.00 | 0.00 | 0.00 | 82 | 1087.8 |
| 20260508192724 | 9 | 315 | 4.8 | 4.8 | 0.00 | 0.00 | 0.00 | 82 | 1042.8 |
| 20260508192423 | 10 | 0 | 0.0 | 11.3 | 0.00 | 0.00 | 0.00 | 82 | 1049.9 |
| 20260508192224 | 10 | 0 | 0.0 | 11.3 | 0.00 | 0.00 | 0.00 | 82 | 1081.5 |
| 20260508191724 | 10 | 337 | 0.0 | 8.0 | 0.00 | 0.00 | 0.00 | 82 | 1007.3 |
| 20260508191224 | 10 | 22 | 3.2 | 9.7 | 0.00 | 0.00 | 0.00 | 82 | 1087.8 |
| 20260508190724 | 10 | 337 | 9.7 | 9.7 | 0.00 | 0.00 | 0.00 | 82 | 1078.3 |
| 20260508190224 | 10 | 22 | 3.2 | 9.7 | 0.00 | 0.00 | 0.00 | 82 | 988.4 |
| 20260508185724 | 10 | 0 | 8.0 | 8.0 | 0.00 | 0.00 | 0.00 | 83 | 1072.3 |
| 20260508185224 | 10 | 315 | 3.2 | 8.0 | 0.00 | 0.00 | 0.00 | 83 | 1084.7 |
| 20260508185124 | 10 | 0 | 4.8 | 8.0 | 0.00 | 0.00 | 0.00 | 83 | 1094.1 |
| 20260508184725 | 10 | 337 | 6.4 | 8.0 | 0.00 | 0.00 | 0.00 | 83 | 1081.5 |
| 20260508184224 | 10 | 45 | 4.8 | 9.7 | 0.00 | 0.00 | 0.00 | 83 | 1072.1 |
| 20260508183724 | 10 | 270 | 0.0 | 4.8 | 0.00 | 0.00 | 0.00 | 83 | 965.4 |
| 20260508183225 | 10 | 292 | 1.6 | 8.0 | 0.00 | 0.00 | 0.00 | 83 | 1052.2 |
| 20260508182725 | 10 | 292 | 8.0 | 8.0 | 0.00 | 0.00 | 0.00 | 83 | 1087.8 |
| 20260508182225 | 10 | 292 | 4.8 | 6.4 | 0.00 | 0.00 | 0.00 | 83 | 1078.4 |
| 20260508181824 | 10 | 292 | 1.6 | 3.2 | 0.00 | 0.00 | 0.00 | 83 | 1078.6 |
| 20260508181725 | 10 | 270 | 1.6 | 3.2 | 0.00 | 0.00 | 0.00 | 83 | 1044.5 |
| 20260508181225 | 10 | 315 | 3.2 | 6.4 | 0.00 | 0.00 | 0.00 | 83 | 1036.5 |
| 20260508180725 | 10 | 292 | 3.2 | 4.8 | 0.00 | 0.00 | 0.00 | 83 | 1065.8 |
| 20260508180225 | 10 | 315 | 4.8 | 4.8 | 0.00 | 0.00 | 0.00 | 82 | 1028.1 |
| 20260508175725 | 10 | 292 | 3.2 | 4.8 | 0.00 | 0.00 | 0.00 | 82 | 1053.4 |
| 20260508175225 | 10 | 270 | 1.6 | 22.5 | 0.00 | 0.00 | 0.00 | 82 | 1063.3 |
| 20260508174725 | 10 | 292 | 4.8 | 9.7 | 0.00 | 0.00 | 0.00 | 82 | 1036.6 |
| 20260508174524 | 10 | 315 | 8.0 | 9.7 | 0.00 | 0.00 | 0.00 | 82 | 1043.8 |
| 20260508174225 | 10 | 0 | 3.2 | 6.4 | 0.00 | 0.00 | 0.00 | 82 | 1075.6 |
| 20260508173725 | 10 | 337 | 3.2 | 6.4 | 0.00 | 0.00 | 0.00 | 82 | 1069.2 |